Wisconsin Dells, Wisconsin, United States (53965)
Lat: 43.63N, Lon: 89.77W
Wx Zone: WIZ057
Local Info
Past Weather Observations for Tuesday, August 26, 2014

NOTE: This archive is for the closest National Weather Service station to Wisconsin Dells. Information may differ from the station used for current weather conditions.

Click here for Long-term Archive

Time Weather Temperature Dewpoint Humidity Pressure Winds Precip Visibility
23:55
Overcast
Light Rain
64°F / 18°C 55°F / 13°C 73% 30.15 in
(1021 mb)
N 3.5 mph
(N 6 kph)
- 10SM
23:35
Mostly Cloudy
64°F / 18°C 55°F / 13°C 73% 30.15 in
(1021 mb)
Calm - 10SM
23:15
Partly Cloudy
64°F / 18°C 55°F / 13°C 73% 30.15 in
(1021 mb)
Calm - 10SM
22:55
Partly Cloudy
64°F / 18°C 55°F / 13°C 73% 30.15 in
(1021 mb)
Calm - 10SM
22:35
Partly Cloudy
64°F / 18°C 55°F / 13°C 73% 30.15 in
(1021 mb)
NW 3.5 mph
(NW 6 kph)
- 10SM
22:15
Clear
66°F / 19°C 55°F / 13°C 68% 30.15 in
(1021 mb)
Calm - 10SM
21:55
Clear
64°F / 18°C 55°F / 13°C 73% 30.15 in
(1021 mb)
Calm - 10SM
21:35
Clear
66°F / 19°C 55°F / 13°C 68% 30.15 in
(1021 mb)
NW 3.5 mph
(NW 6 kph)
- 10SM
21:15
Clear
64°F / 18°C 57°F / 14°C 78% 30.15 in
(1021 mb)
NW 3.5 mph
(NW 6 kph)
- 10SM
20:55
Clear
64°F / 18°C 57°F / 14°C 78% 30.15 in
(1021 mb)
Calm - 10SM
20:35
Clear
64°F / 18°C 57°F / 14°C 78% 30.15 in
(1021 mb)
Calm - 10SM
20:15
Clear
66°F / 19°C 57°F / 14°C 73% 30.15 in
(1021 mb)
Calm - 10SM
19:55
Clear
66°F / 19°C 57°F / 14°C 73% 30.12 in
(1020 mb)
Calm - 10SM
19:35
Clear
66°F / 19°C 59°F / 15°C 78% 30.12 in
(1020 mb)
Calm - 10SM
19:15
Clear
66°F / 19°C 57°F / 14°C 73% 30.12 in
(1020 mb)
Calm - 10SM
18:55
Clear
68°F / 20°C 57°F / 14°C 69% 30.12 in
(1020 mb)
Calm - 10SM
18:35
Clear
70°F / 21°C 57°F / 14°C 64% 30.12 in
(1020 mb)
NW 3.5 mph
(NW 6 kph)
- 10SM
18:15
Clear
70°F / 21°C 55°F / 13°C 60% 30.12 in
(1020 mb)
NW 3.5 mph
(NW 6 kph)
- 10SM
17:55
Clear
72°F / 22°C 55°F / 13°C 57% 30.12 in
(1020 mb)
Calm - 10SM
17:35
Clear
73°F / 23°C 55°F / 13°C 53% 30.12 in
(1020 mb)
Calm - 10SM
17:15
Clear
73°F / 23°C 55°F / 13°C 53% 30.12 in
(1020 mb)
NW 4.6 mph
(NW 7 kph)
- 10SM
16:55
Clear
75°F / 24°C 54°F / 12°C 47% 30.12 in
(1020 mb)
WNW 3.5 mph
(WNW 6 kph)
- 10SM
16:35
Clear
75°F / 24°C 55°F / 13°C 50% 30.12 in
(1020 mb)
W 3.5 mph
(W 6 kph)
- 10SM
16:15
Clear
75°F / 24°C 54°F / 12°C 47% 30.12 in
(1020 mb)
WNW 4.6 mph
(WNW 7 kph)
- 10SM
15:55
Clear
75°F / 24°C 52°F / 11°C 44% 30.12 in
(1020 mb)
W 6.9 mph
(W 11 kph)
- 10SM
15:35
Clear
75°F / 24°C 52°F / 11°C 44% 30.12 in
(1020 mb)
W 3.5 mph
(W 6 kph)
- 10SM
15:15
Clear
75°F / 24°C 52°F / 11°C 44% 30.12 in
(1020 mb)
WNW 8.1 mph
(WNW 13 kph)
- 10SM
14:55
Clear
75°F / 24°C 52°F / 11°C 44% 30.12 in
(1020 mb)
NW 5.8 mph
(NW 9 kph)
- 10SM
14:35
Clear
75°F / 24°C 50°F / 10°C 41% 30.12 in
(1020 mb)
N 5.8 mph
(N 9 kph)
- 10SM
14:15
Clear
75°F / 24°C 50°F / 10°C 41% 30.12 in
(1020 mb)
W 8.1 mph
(W 13 kph)
- 10SM
13:55
Clear
73°F / 23°C 52°F / 11°C 47% 30.12 in
(1020 mb)
W 5.8 mph
(W 9 kph)
- 10SM
13:35
Clear
73°F / 23°C 52°F / 11°C 47% 30.12 in
(1020 mb)
WNW 3.5 mph
(WNW 6 kph)
- 10SM
13:15
Clear
73°F / 23°C 54°F / 12°C 50% 30.12 in
(1020 mb)
Calm - 10SM
12:55
Clear
73°F / 23°C 54°F / 12°C 50% 30.15 in
(1021 mb)
W 3.5 mph
(W 6 kph)
- 10SM
12:35
Clear
72°F / 22°C 54°F / 12°C 53% 30.15 in
(1021 mb)
SSW 4.6 mph
(SSW 7 kph)
- 10SM
12:33
Clear
72°F / 22°C 54°F / 12°C 53% 30.15 in
(1021 mb)
W 6.9 mph
(W 11 kph)
- 10SM
12:15
Clear
72°F / 22°C 54°F / 12°C 53% 30.15 in
(1021 mb)
Calm - 10SM
11:55
Clear
72°F / 22°C 52°F / 11°C 50% 30.12 in
(1020 mb)
NW 9.2 mph
(NW 15 kph)
- 10SM
11:35
Clear
70°F / 21°C 52°F / 11°C 53% 30.12 in
(1020 mb)
NW 5.8 mph
(NW 9 kph)
- 10SM
11:10
Clear
70°F / 21°C 52°F / 11°C 53% 30.12 in
(1020 mb)
NE 5.8 mph
(NE 9 kph)
- 10SM
10:55
Clear
70°F / 21°C 54°F / 12°C 57% 30.12 in
(1020 mb)
N 3.5 mph
(N 6 kph)
- 10SM
10:35
Clear
66°F / 19°C 54°F / 12°C 64% 30.12 in
(1020 mb)
NNW 8.1 mph
(NNW 13 kph)
- 10SM
10:15
Clear
66°F / 19°C 52°F / 11°C 60% 30.09 in
(1019 mb)
N 6.9 mph
(N 11 kph)
- 10SM
09:55
Clear
66°F / 19°C 54°F / 12°C 64% 30.12 in
(1020 mb)
NNW 3.5 mph
(NNW 6 kph)
- 10SM
09:35
Clear
66°F / 19°C 54°F / 12°C 64% 30.12 in
(1020 mb)
NNE 4.6 mph
(NNE 7 kph)
- 10SM
09:15
Clear
66°F / 19°C 55°F / 13°C 68% 30.15 in
(1021 mb)
NNW 4.6 mph
(NNW 7 kph)
- 10SM
09:13
Clear
64°F / 18°C 55°F / 13°C 73% 30.15 in
(1021 mb)
NNW 4.6 mph
(NNW 7 kph)
- 10SM
08:50
Clear
64°F / 18°C 55°F / 13°C 73% 30.18 in
(1022 mb)
Calm - 10SM
08:40
Clear
64°F / 18°C 54°F / 12°C 68% 30.18 in
(1022 mb)
Calm - 10SM
08:15
Partly Cloudy
Drizzle
64°F / 18°C 55°F / 13°C 73% 30.15 in
(1021 mb)
NNW 5.8 mph
(NNW 9 kph)
- 10SM
07:55
Mostly Cloudy
64°F / 18°C 55°F / 13°C 73% 30.15 in
(1021 mb)
NW 5.8 mph
(NW 9 kph)
- 10SM
07:35
Mostly Cloudy
64°F / 18°C 55°F / 13°C 73% 30.18 in
(1022 mb)
NW 4.6 mph
(NW 7 kph)
- 10SM
07:15
Mostly Cloudy
64°F / 18°C 55°F / 13°C 73% 30.15 in
(1021 mb)
NW 4.6 mph
(NW 7 kph)
- 10SM
06:55
Overcast
64°F / 18°C 57°F / 14°C 78% 30.15 in
(1021 mb)
NW 5.8 mph
(NW 9 kph)
- 10SM
06:35
Mostly Cloudy
66°F / 19°C 57°F / 14°C 73% 30.15 in
(1021 mb)
NW 4.6 mph
(NW 7 kph)
- 10SM
06:15
Mostly Cloudy
64°F / 18°C 57°F / 14°C 78% 30.12 in
(1020 mb)
NNW 3.5 mph
(NNW 6 kph)
- 10SM
05:55
Overcast
64°F / 18°C 59°F / 15°C 83% 30.12 in
(1020 mb)
NW 5.8 mph
(NW 9 kph)
- 10SM
05:35
Overcast
64°F / 18°C 59°F / 15°C 83% 30.12 in
(1020 mb)
NW 3.5 mph
(NW 6 kph)
- 10SM
05:15
Overcast
64°F / 18°C 59°F / 15°C 83% 30.09 in
(1019 mb)
NW 4.6 mph
(NW 7 kph)
- 10SM
04:50
Overcast
66°F / 19°C 59°F / 15°C 78% 30.09 in
(1019 mb)
Calm - 10SM
04:35
Overcast
66°F / 19°C 59°F / 15°C 78% 30.09 in
(1019 mb)
Calm - 10SM
04:15
Overcast
64°F / 18°C 61°F / 16°C 88% 30.09 in
(1019 mb)
Calm - 10SM
03:55
Mostly Cloudy
66°F / 19°C 59°F / 15°C 78% 30.06 in
(1018 mb)
Calm 0.01 in
(0.25 mm)
10SM
03:35
Mostly Cloudy
Rain
66°F / 19°C 59°F / 15°C 78% 30.06 in
(1018 mb)
NNW 3.5 mph
(NNW 6 kph)
0.01 in
(0.25 mm)
7SM
03:15
Mostly Cloudy
68°F / 20°C 59°F / 15°C 73% 30.06 in
(1018 mb)
NW 4.6 mph
(NW 7 kph)
- 10SM
02:55
Mostly Cloudy
68°F / 20°C 59°F / 15°C 73% 30.06 in
(1018 mb)
Calm - 10SM
02:35
Partly Cloudy
68°F / 20°C 61°F / 16°C 78% 30.06 in
(1018 mb)
NW 5.8 mph
(NW 9 kph)
- 10SM
02:15
Mostly Cloudy
70°F / 21°C 63°F / 17°C 78% 30.04 in
(1017 mb)
NNW 6.9 mph
(NNW 11 kph)
- 10SM
01:55
Overcast
Light Rain
70°F / 21°C 63°F / 17°C 78% 30.04 in
(1017 mb)
NNW 3.5 mph
(NNW 6 kph)
- 10SM
01:35
Overcast
72°F / 22°C 64°F / 18°C 78% 30.04 in
(1017 mb)
NNW 4.6 mph
(NNW 7 kph)
- 10SM
01:15
Overcast
72°F / 22°C 66°F / 19°C 83% 30.04 in
(1017 mb)
NNW 6.9 mph
(NNW 11 kph)
- 10SM
00:55
Mostly Cloudy
Fog And Mist
72°F / 22°C 70°F / 21°C 94% 30.04 in
(1017 mb)
Calm - 5SM
00:35
Overcast
72°F / 22°C 70°F / 21°C 94% 30.04 in
(1017 mb)
Calm - 10SM
00:15
Mostly Cloudy
72°F / 22°C 70°F / 21°C 94% 30.04 in
(1017 mb)
W 3.5 mph
(W 6 kph)
- 7SM
Time Weather Temperature Dewpoint Humidity Pressure Winds Precip Visibility


Weather for websites

WeatherForYou.com, LLC is not responsible for any damages or problems caused by this service. Current weather conditions are obtained from the closest station including government and personal stations which may have varying degrees of accuracy. Weather forecasts are derived from the NOAA NDFD. Like all things, this site belongs to Jesus Christ... He just trusts me to maintain it. If you have any questions or comments email webmaster@weatherforyou.com

Copyright © 2014, WeatherForYou.com LLC. All rights reserved.